Location: American Canyon
(38.1966°N, 122.1514°W)
Time: 13:44:07
(UTC+00:00)

Cosmos 1980 Rocket - Pass Details

Date: 29 October 2020
Orbit: 831 x 848 km, 71.0° (Epoch: 01 December)

Event Time Altitude Azimuth Distance (km) Brightness Sun altitude
Exits shadow 12:51:26 - 339° (NNW) 2,903 4.8 -20.3°
Reaches altitude 10° 12:52:38 10° 340° (NNW) 2,444 4.4 -20.1°
Maximum altitude 12:58:15 81° 67° (ENE) 847 2.2 -19.0°
Drops below altitude 10° 13:03:51 10° 155° (SSE) 2,435 5.0 -17.9°
Sets 13:06:16 0° 156° (SSE) 3,368 5.7 -17.4°
